Meteo Giornale » Osservazioni meteo Italia » Napoli-Capodichino

ore: 00:50 - Osservazioni Meteo Napoli-Capodichino
Lat. 40° 51' N Lon. 14° 18' E Alt. 88 metri s.l.m.

poco_nuvoloso Europe/Rome

15 °C

Poco Nuvoloso

Temp. 24 Ore

12 °C

19 °C

Nord

1.8 Km/h

Dew point 14 °C

Umidità 93 %

Visibilità  10 Km

Il sole sorge alle ore 05:51

Il sole tramonta alle ore 20:06

Data e Ora Cielo e Fenomeni T °C DP °C Um. % Pres. hPa Vis. km Vento km/h
Oggi h: 00:50 poco_nuvoloso Poco Nuvoloso 15 14 93 1017 10 N 1.8
Oggi h: 00:20 poco_nuvoloso Poco Nuvoloso 15 14 93 1017 10 N 3.7
Ieri h: 23:50 sereno Sereno 15 14 93 1017 10 N 3.7
Ieri h: 23:20 sereno Sereno 15 14 93 1017 10 N 5.5
Ieri h: 22:50 poco_nuvoloso Poco Nuvoloso 16 13 82 1017 10 O/SO 9.3
Ieri h: 22:20 poco_nuvoloso Poco Nuvoloso 16 13 82 1017 10 S/SO 7.4
Ieri h: 21:50 poco_nuvoloso Poco Nuvoloso 16 13 82 1017 10 SO 7.4
Ieri h: 21:20 poco_nuvoloso Poco Nuvoloso 16 13 82 1017 10 S/SO 7.4
Ieri h: 20:50 poco_nuvoloso Poco Nuvoloso 16 13 82 1017 10 S/SO 9.3
Ieri h: 20:20 poco_nuvoloso Poco Nuvoloso 16 13 82 1017 10 S/SO 9.3
Ieri h: 19:50 poco_nuvoloso Poco Nuvoloso 17 13 77 1017 10 S/SO 11.1
Ieri h: 19:20 molto_nuvoloso Molto Nuvoloso 17 13 77 1017 10 S/SO 9.3
Ieri h: 18:50 nuvoloso Nuvoloso 18 12 67 1017 10 S/SO 13
Ieri h: 18:20 nuvoloso Nuvoloso 18 12 67 1017 10 SO 13
Ieri h: 17:50 nuvoloso Nuvoloso 18 13 72 1017 10 S/SO 14.8
Ieri h: 17:20 nuvoloso Nuvoloso 18 13 72 1017 10 S/SO 16.7
Ieri h: 16:50 nuvoloso Nuvoloso 19 12 63 1017 10 SO 16.7
Ieri h: 16:20 nuvoloso Nuvoloso 19 12 63 1017 10 S/SO 13
Ieri h: 15:50 nuvoloso Nuvoloso 18 12 67 1017 10 S/SO 14.8
Ieri h: 15:20 poco_nuvoloso Poco Nuvoloso 19 12 63 1017 10 S/SO 14.8
Ieri h: 14:50 nuvoloso Nuvoloso 19 12 63 1018 10 SO 20.3
Ieri h: 14:20 nuvoloso Nuvoloso 19 12 63 1018 10 S/SO 18.5
Ieri h: 13:50 nuvoloso Nuvoloso 19 11 59 1018 10 S 16.7
Ieri h: 13:20 nuvoloso Nuvoloso 19 12 63 1018 10 S/SO 16.7
Ieri h: 12:50 nuvoloso Nuvoloso 19 11 59 1018 10 S 13
Ieri h: 12:20 nuvoloso Nuvoloso 19 12 63 1018 10 S 11.1
Ieri h: 11:50 nuvoloso Nuvoloso 19 12 63 1018 10 S/SO 14.8
Ieri h: 11:20 nuvoloso Nuvoloso 19 12 63 1018 10 S/SO 14.8
Ieri h: 10:50 nuvoloso Nuvoloso 18 12 67 1018 10 S 14.8
Ieri h: 10:20 nuvoloso Nuvoloso 18 12 67 1018 10 S/SO 11.1
Ieri h: 09:50 molto_nuvoloso Molto Nuvoloso 18 13 72 1018 10 S/SO 16.7
Ieri h: 09:20 molto_nuvoloso Molto Nuvoloso 17 12 72 1017 10 S/SO 13
Ieri h: 08:50 molto_nuvoloso Molto Nuvoloso 18 13 72 1017 10 S 9.3
Ieri h: 08:20 nuvoloso Nuvoloso 17 13 77 1017 10 S 7.4
Ieri h: 07:50 nuvoloso Nuvoloso 16 13 82 1016 10 N 3.7
Ieri h: 07:20 nuvoloso Nuvoloso 14 12 87 1016 10 N 0
Ieri h: 06:50 nuvoloso Nuvoloso 13 12 93 1016 10 N 1.8
Ieri h: 06:20 poco_nuvoloso Poco Nuvoloso 12 11 93 1016 10 N 3.7
Ieri h: 05:50 poco_nuvoloso Poco Nuvoloso 12 11 93 1016 10 N 3.7
Ieri h: 05:20 sereno Sereno 13 12 93 1015 10 N 5.5
Ieri h: 04:50 sereno Sereno 13 12 93 1015 10 N 0
Ieri h: 04:20 sereno Sereno 13 12 93 1016 10 N 3.7
Ieri h: 03:50 sereno Sereno 13 12 93 1016 10 N 5.5
Ieri h: 02:20 sereno Sereno 12 11 93 1016 10 N 5.5
Ieri h: 01:50 sereno Sereno 13 11 87 1016 10 O 7.4